Weather in Lazarevo

Russia / Kirov Oblast     56°49′29″N   50°12′00″E
temp.,
°C
wind,
m/s
gust,
m/s
humid.,
%
clouds,
%
prec.,
mm/h
press.,
hPa
HPBL,
m
3 march, wed
wed300:00−3w589588 0.2 998320
03:00−6w369693 0.3 998147
06:00−4w379792 0.3 998195
09:00−3nw589596 1.0 999462
12:00−3nw7995100 0.6 1000681
15:00−5nw71087100 0.8 1001753
18:00−6wnw51190100 0.1 1002601
21:00−8w5119298 0.1 1003373
4 march, thu
thu400:00−9wsw489396 0.1 1001200
03:00−8sw5109497 0.2 1000331
06:00−7sw61192100 0.5 997411
09:00−3sw71292100 0.6 995685
12:00−1sw81294100 0.4 991858
15:00−1sw81495100 2.3 9891116
18:00−4w7168537 0.4 990563
21:00−5w7149146 0.4 993416
5 march, fri
fri500:00−6wnw6119391 0.1 996409
03:00−12wnw469690 0.1 998102
06:00−14wnw349592 0.0 100149
09:00−14nw469163 0.0 1002256
12:00−11nw46870 0.0 1003438
15:00−11nw58882 0.0 1005509
18:00−15wnw449343 0.0 100761
21:00−15w349622 0.0 101054
6 march, sat
sat600:00−14wsw449754 0.0 101087
03:00−14wsw469663 0.1 101199
06:00−16wsw459746 0.0 101280
09:00−12sw369570 0.0 1011238
12:00−9sw3593100 0.2 1011335
15:00−8ssw3392100 0.3 1009306
18:00−11sw2396100 0.2 100944
21:00−13nnw4795100 0.7 1010208
7 march, sun
sun700:00−17nnw339795 0.1 100937
03:00−21wnw349861 0.1 101034
06:00−22wsw33990 0.0 101025
09:00−17sw369525 0.0 1010217
12:00−13ssw579280 0.0 1008374
15:00−12s7119290 0.0 1005462
18:00−12s81592100 0.3 1003779
21:00−9s81592100 0.8 1000806